• Em Portugal
  • Lista de países
  • Para 7 dias
  • Temperatura da água
  • Mapas de satélite
  • Mapa do tempo
  • Widgets de tempo
  • user-avatar
    Iniciar Sessão

    Previsão horária em Saurimo

    Hoje, 15 Agosto, Quarta-feira

    Tempo Temperatura Precipitação Vento Pressão Humidade
    00:00 +23°C° 0 mm 1 m/s 672 mmHg 31%
    01:00 +20°C° 0 mm 0 m/s 672 mmHg 33%
    02:00 +22°C° 0 mm 1 m/s 672 mmHg 34%
    03:00 +21°C° 0 mm 1 m/s 672 mmHg 35%
    04:00 +21°C° 0 mm 1 m/s 671 mmHg 36%
    05:00 +21°C° 0 mm 1 m/s 672 mmHg 35%
    06:00 +22°C° 0 mm 1 m/s 672 mmHg 33%
    07:00 +24°C° 0 mm 1 m/s 673 mmHg 30%
    08:00 +27°C° 0 mm 2 m/s 674 mmHg 26%
    09:00 +30°C° 0 mm 2 m/s 674 mmHg 22%
    10:00 +35°C° 0 mm 2 m/s 675 mmHg 17%
    11:00 +36°C° 0 mm 2 m/s 674 mmHg 16%
    12:00 +37°C° 0 mm 2 m/s 674 mmHg 14%
    13:00 +39°C° 0 mm 2 m/s 674 mmHg 14%
    14:00 +38°C° 0 mm 2 m/s 673 mmHg 13%
    15:00 +38°C° 0 mm 2 m/s 672 mmHg 13%
    16:00 +37°C° 0 mm 2 m/s 672 mmHg 13%
    17:00 +35°C° 0 mm 2 m/s 672 mmHg 16%
    18:00 +31°C° 0 mm 1 m/s 671 mmHg 18%
    19:00 +29°C° 0 mm 1 m/s 671 mmHg 21%
    20:00 +28°C° 0 mm 1 m/s 672 mmHg 22%
    21:00 +27°C° 0 mm 1 m/s 672 mmHg 22%
    22:00 +27°C° 0 mm 1 m/s 672 mmHg 23%
    23:00 +26°C° 0 mm 1 m/s 672 mmHg 25%

    Amanhã, 16 Agosto, Quinta-feira

    Tempo Temperatura Precipitação Vento Pressão Humidade
    00:00 +25°C° 0 mm 2 m/s 672 mmHg 26%
    01:00 +24°C° 0 mm 2 m/s 672 mmHg 27%
    02:00 +23°C° 0 mm 2 m/s 671 mmHg 28%
    03:00 +23°C° 0 mm 2 m/s 671 mmHg 29%
    04:00 +21°C° 0 mm 2 m/s 671 mmHg 30%
    05:00 +21°C° 0 mm 2 m/s 671 mmHg 28%
    06:00 +22°C° 0 mm 3 m/s 672 mmHg 26%
    07:00 +24°C° 0 mm 3 m/s 672 mmHg 24%
    08:00 +27°C° 0 mm 3 m/s 673 mmHg 20%
    09:00 +32°C° 0 mm 4 m/s 674 mmHg 16%
    10:00 +35°C° 0 mm 4 m/s 675 mmHg 11%
    11:00 +36°C° 0 mm 4 m/s 674 mmHg 10%
    12:00 +37°C° 0 mm 3 m/s 674 mmHg 10%
    13:00 +38°C° 0 mm 3 m/s 673 mmHg 9%
    14:00 +38°C° 0 mm 3 m/s 672 mmHg 9%
    15:00 +38°C° 0 mm 2 m/s 672 mmHg 9%
    16:00 +38°C° 0 mm 2 m/s 671 mmHg 8%
    17:00 +35°C° 0 mm 2 m/s 671 mmHg 10%
    18:00 +31°C° 0 mm 1 m/s 671 mmHg 12%
    19:00 +28°C° 0 mm 1 m/s 671 mmHg 14%
    20:00 +27°C° 0 mm 1 m/s 671 mmHg 15%
    21:00 +26°C° 0 mm 1 m/s 671 mmHg 16%
    22:00 +25°C° 0 mm 1 m/s 672 mmHg 17%
    23:00 +24°C° 0 mm 1 m/s 671 mmHg 17%

    Depois de amanhã, 17 Agosto, Sexta-feira

    Tempo Temperatura Precipitação Vento Pressão Humidade
    00:00 +23°C° 0 mm 1 m/s 671 mmHg 18%
    01:00 +22°C° 0 mm 1 m/s 671 mmHg 19%
    02:00 +21°C° 0 mm 2 m/s 670 mmHg 19%
    03:00 +20°C° 0 mm 2 m/s 670 mmHg 19%
    04:00 +19°C° 0 mm 2 m/s 670 mmHg 20%
    05:00 +20°C° 0 mm 2 m/s 670 mmHg 19%
    06:00 +21°C° 0 mm 2 m/s 671 mmHg 18%
    07:00 +23°C° 0 mm 2 m/s 672 mmHg 18%
    08:00 +27°C° 0 mm 2 m/s 673 mmHg 15%
    09:00 +31°C° 0 mm 3 m/s 673 mmHg 13%
    10:00 +36°C° 0 mm 3 m/s 674 mmHg 11%
    11:00 +37°C° 0 mm 3 m/s 673 mmHg 10%
    12:00 +39°C° 0 mm 2 m/s 673 mmHg 8%
    13:00 +40°C° 0 mm 2 m/s 672 mmHg 7%
    14:00 +40°C° 0 mm 2 m/s 671 mmHg 7%
    15:00 +39°C° 0 mm 2 m/s 671 mmHg 7%
    16:00 +39°C° 0 mm 1 m/s 670 mmHg 7%
    17:00 +34°C° 0 mm 1 m/s 670 mmHg 9%
    18:00 +31°C° 0 mm 1 m/s 670 mmHg 11%
    19:00 +28°C° 0 mm 1 m/s 669 mmHg 13%
    20:00 +27°C° 0 mm 1 m/s 670 mmHg 15%
    21:00 +26°C° 0 mm 1 m/s 670 mmHg 16%
    22:00 +25°C° 0 mm 1 m/s 670 mmHg 17%
    23:00 +24°C° 0 mm 1 m/s 670 mmHg 18%

    18 Agosto, Sábado

    Tempo Temperatura Precipitação Vento Pressão Humidade
    00:00 +24°C° 0 mm 1 m/s 669 mmHg 18%
    01:00 +23°C° 0 mm 1 m/s 669 mmHg 19%
    02:00 +22°C° 0 mm 1 m/s 669 mmHg 20%
    03:00 +22°C° 0 mm 1 m/s 669 mmHg 21%
    04:00 +21°C° 0 mm 1 m/s 668 mmHg 21%
    05:00 +21°C° 0 mm 2 m/s 669 mmHg 20%
    06:00 +23°C° 0 mm 2 m/s 670 mmHg 19%
    07:00 +23°C° 0 mm 2 m/s 670 mmHg 18%
    08:00 +28°C° 0 mm 2 m/s 671 mmHg 15%
    09:00 +32°C° 0 mm 2 m/s 672 mmHg 12%
    10:00 +37°C° 0 mm 3 m/s 673 mmHg 9%
    11:00 +38°C° 0 mm 3 m/s 672 mmHg 9%
    12:00 +39°C° 0 mm 3 m/s 672 mmHg 8%
    13:00 +40°C° 0 mm 3 m/s 671 mmHg 7%
    14:00 +40°C° 0 mm 3 m/s 670 mmHg 8%
    15:00 +39°C° 0 mm 3 m/s 670 mmHg 8%
    16:00 +39°C° 0 mm 3 m/s 669 mmHg 8%
    17:00 +36°C° 0 mm 2 m/s 669 mmHg 10%
    18:00 +32°C° 0 mm 2 m/s 669 mmHg 13%
    19:00 +29°C° 0 mm 1 m/s 669 mmHg 15%
    20:00 +28°C° 0 mm 1 m/s 669 mmHg 16%
    21:00 +27°C° 0 mm 1 m/s 670 mmHg 17%
    22:00 +26°C° 0 mm 1 m/s 670 mmHg 18%
    23:00 +26°C° 0 mm 1 m/s 670 mmHg 19%

    19 Agosto, Domingo

    Tempo Temperatura Precipitação Vento Pressão Humidade
    00:00 +23°C° 0 mm 0 m/s 669 mmHg 20%
    01:00 +22°C° 0 mm 0 m/s 669 mmHg 20%
    02:00 +23°C° 0 mm 1 m/s 669 mmHg 22%
    03:00 +23°C° 0 mm 1 m/s 669 mmHg 23%
    04:00 +22°C° 0 mm 1 m/s 669 mmHg 24%
    05:00 +23°C° 0 mm 1 m/s 669 mmHg 22%
    06:00 +24°C° 0 mm 1 m/s 670 mmHg 21%
    07:00 +25°C° 0 mm 1 m/s 671 mmHg 19%
    08:00 +29°C° 0 mm 1 m/s 672 mmHg 17%
    09:00 +33°C° 0 mm 1 m/s 673 mmHg 14%
    10:00 +39°C° 0 mm 1 m/s 674 mmHg 12%
    11:00 +40°C° 0 mm 1 m/s 673 mmHg 11%
    12:00 +40°C° 0 mm 1 m/s 672 mmHg 10%
    13:00 +41°C° 0 mm 2 m/s 672 mmHg 9%
    14:00 +40°C° 0 mm 2 m/s 671 mmHg 10%
    15:00 +39°C° 0 mm 2 m/s 670 mmHg 10%
    16:00 +39°C° 0 mm 2 m/s 670 mmHg 10%
    17:00 +35°C° 0 mm 1 m/s 670 mmHg 13%
    18:00 +32°C° 0 mm 1 m/s 670 mmHg 15%
    19:00 +29°C° 0 mm 1 m/s 670 mmHg 18%
    20:00 +28°C° 0 mm 1 m/s 670 mmHg 19%
    21:00 +27°C° 0 mm 1 m/s 670 mmHg 21%
    22:00 +26°C° 0 mm 1 m/s 670 mmHg 22%
    23:00 +26°C° 0 mm 1 m/s 670 mmHg 22%

    20 Agosto, Segunda-feira

    Tempo Temperatura Precipitação Vento Pressão Humidade
    00:00 +25°C° 0 mm 1 m/s 669 mmHg 23%
    01:00 +22°C° 0 mm 0 m/s 669 mmHg 24%
    02:00 +24°C° 0 mm 1 m/s 669 mmHg 25%
    03:00 +23°C° 0 mm 1 m/s 669 mmHg 27%
    04:00 +23°C° 0 mm 1 m/s 669 mmHg 28%
    05:00 +24°C° 0 mm 1 m/s 670 mmHg 26%
    06:00 +24°C° 0 mm 1 m/s 671 mmHg 24%
    07:00 +25°C° 0 mm 1 m/s 671 mmHg 22%
    08:00 +29°C° 0 mm 1 m/s 672 mmHg 18%
    09:00 +33°C° 0 mm 1 m/s 673 mmHg 15%
    10:00 +38°C° 0 mm 2 m/s 674 mmHg 11%
    11:00 +39°C° 0 mm 2 m/s 673 mmHg 10%
    12:00 +40°C° 0 mm 2 m/s 672 mmHg 9%
    13:00 +41°C° 0 mm 2 m/s 671 mmHg 8%
    14:00 +40°C° 0 mm 2 m/s 671 mmHg 9%
    15:00 +39°C° 0 mm 2 m/s 670 mmHg 9%
    16:00 +39°C° 0 mm 2 m/s 670 mmHg 9%
    17:00 +36°C° 0 mm 2 m/s 670 mmHg 12%
    18:00 +32°C° 0 mm 2 m/s 670 mmHg 15%
    19:00 +29°C° 0 mm 1 m/s 670 mmHg 17%
    20:00 +28°C° 0 mm 1 m/s 670 mmHg 21%
    21:00 +27°C° 0 mm 1 m/s 670 mmHg 24%
    22:00 +26°C° 0 mm 1 m/s 670 mmHg 28%
    23:00 +25°C° 0 mm 1 m/s 670 mmHg 29%
    Mostrar mais